International Skating Union - Official Site

ISU World Cup Nagano
November 18-20, 2016

Draw | Lap Times | Index | World Cup

Referee: Trevis  BOYD  (CAN)
Starter: Yoshihiro  KITAZAWA  (JPN)
StartTime: EndTime: Air Temp: Ice Temp: Humidity:
16:10 16:41 16.0 ℃ -6.9 ℃ 56.0%
Result Team Pursuit Men
Rankings as of Nov 20 2016 5:52PM
Rank: No.: Team: Nation: Time: Behind: Points:
Total 10
1 1 Netherlands (92) Sven Kramer (87) Jorrit Bergsma (89) Douwe de Vries (97) Patrick Roest NED NED 3:42.650.5 - 18.21 - (18.2)
1.0 - 31.61 - (13.3)
1.5 - 44.99 - (13.3)
2.0 - 58.59 - (13.6)
2.5 - 1:11.95 - (13.3)
3.0 - 1:25.36 - (13.4)
3.5 - 1:38.99 - (13.6)
4.0 - 1:52.42 - (13.4)
4.5 - 2:05.96 - (13.5)
5.0 - 2:19.70 - (13.7)
5.5 - 2:33.51 - (13.8)
6.0 - 2:47.59 - (14.0)
6.5 - 3:01.46 - (13.8)
7.0 - 3:15.28 - (13.8)
7.5 - 3:28.88 - (13.5)
8.0 - 3:42.65 - (13.7)
100
2 5 Korea (80) Hyung-Joon Joo (83) Min Seok Kim (85) Seung-Hoon Lee KOR KOR 3:44.380.5 - 18.00 - (18.0)
1.0 - 31.56 - (13.5)
1.5 - 45.15 - (13.5)
2.0 - 58.67 - (13.5)
2.5 - 1:12.28 - (13.6)
3.0 - 1:25.70 - (13.4)
3.5 - 1:39.55 - (13.8)
4.0 - 1:53.40 - (13.8)
4.5 - 2:07.57 - (14.1)
5.0 - 2:21.39 - (13.8)
5.5 - 2:35.25 - (13.8)
6.0 - 2:49.18 - (13.9)
6.5 - 3:02.81 - (13.6)
7.0 - 3:16.54 - (13.7)
7.5 - 3:30.37 - (13.8)
8.0 - 3:44.38 - (14.0)
1.73 80
3 12 New Zealand (108) Reyon Kay (107) Shane Dobbin (109) Peter Michael NZL NZL 3:45.030.5 - 18.83 - (18.8)
1.0 - 32.66 - (13.8)
1.5 - 46.12 - (13.4)
2.0 - 59.62 - (13.5)
2.5 - 1:13.29 - (13.6)
3.0 - 1:27.10 - (13.8)
3.5 - 1:40.70 - (13.6)
4.0 - 1:54.29 - (13.5)
4.5 - 2:07.93 - (13.6)
5.0 - 2:21.77 - (13.8)
5.5 - 2:35.65 - (13.8)
6.0 - 2:49.54 - (13.8)
6.5 - 3:03.47 - (13.9)
7.0 - 3:17.32 - (13.8)
7.5 - 3:31.12 - (13.8)
8.0 - 3:45.03 - (13.9)
2.38 70
4 4 Italy (53) Andrea Giovannini (57) Nicola Tumolero (54) Michele Malfatti (56) Luca Stefani ITA ITA 3:45.210.5 - 18.02 - (18.0)
1.0 - 31.80 - (13.7)
1.5 - 45.25 - (13.4)
2.0 - 58.75 - (13.5)
2.5 - 1:12.45 - (13.7)
3.0 - 1:25.98 - (13.5)
3.5 - 1:39.65 - (13.6)
4.0 - 1:53.30 - (13.6)
4.5 - 2:07.23 - (13.9)
5.0 - 2:20.97 - (13.7)
5.5 - 2:34.73 - (13.7)
6.0 - 2:48.67 - (13.9)
6.5 - 3:02.72 - (14.0)
7.0 - 3:16.68 - (13.9)
7.5 - 3:31.00 - (14.3)
8.0 - 3:45.21 - (14.2)
2.56 60
5 8 Japan (64) Shota Nakamura (72) Shane Williamson (70) Ryosuke Tsuchiya (61) Seitaro Ichinohe JPN JPN 3:45.440.5 - 17.75 - (17.7)
1.0 - 31.30 - (13.5)
1.5 - 44.94 - (13.6)
2.0 - 58.75 - (13.8)
2.5 - 1:12.38 - (13.6)
3.0 - 1:26.10 - (13.7)
3.5 - 1:39.91 - (13.8)
4.0 - 1:53.58 - (13.6)
4.5 - 2:07.49 - (13.9)
5.0 - 2:21.60 - (14.1)
5.5 - 2:35.47 - (13.8)
6.0 - 2:49.32 - (13.8)
6.5 - 3:03.16 - (13.8)
7.0 - 3:17.19 - (14.0)
7.5 - 3:31.44 - (14.2)
8.0 - 3:45.44 - (14.0)
2.79 50
6 2 Norway (105) Sverre Lunde Pedersen (104) Simen Spieler Nilsen (101) Sindre Henriksen (103) Håvard Holmefjord Lorentzen NOR NOR 3:45.880.5 - 17.67 - (17.6)
1.0 - 31.20 - (13.5)
1.5 - 44.89 - (13.6)
2.0 - 58.74 - (13.8)
2.5 - 1:12.69 - (13.9)
3.0 - 1:26.63 - (13.9)
3.5 - 1:40.65 - (14.0)
4.0 - 1:54.42 - (13.7)
4.5 - 2:08.27 - (13.8)
5.0 - 2:22.32 - (14.0)
5.5 - 2:36.21 - (13.8)
6.0 - 2:50.03 - (13.8)
6.5 - 3:03.84 - (13.8)
7.0 - 3:17.69 - (13.8)
7.5 - 3:31.65 - (13.9)
8.0 - 3:45.88 - (14.2)
3.23 45
7 6 Russia (125) Sergey Trofimov (118) Sergey Gryaztsov (124) Danila Semerikov (127) Denis Yuskov RUS RUS 3:46.000.5 - 17.90 - (17.8)
1.0 - 31.08 - (13.1)
1.5 - 44.36 - (13.2)
2.0 - 57.92 - (13.5)
2.5 - 1:11.74 - (13.8)
3.0 - 1:25.71 - (13.9)
3.5 - 1:39.45 - (13.7)
4.0 - 1:53.02 - (13.5)
4.5 - 2:06.60 - (13.5)
5.0 - 2:20.09 - (13.4)
5.5 - 2:33.86 - (13.7)
6.0 - 2:47.92 - (14.0)
6.5 - 3:02.30 - (14.3)
7.0 - 3:16.57 - (14.2)
7.5 - 3:31.11 - (14.5)
8.0 - 3:46.00 - (14.9)
3.35 40
8 7 Canada (8) Ted-Jan Bloemen (7) Jordan Belchos (17) Denny Morrison (14) Oliver Jean CAN CAN 3:46.090.5 - 18.21 - (18.2)
1.0 - 31.91 - (13.6)
1.5 - 45.54 - (13.6)
2.0 - 59.11 - (13.5)
2.5 - 1:12.71 - (13.5)
3.0 - 1:25.99 - (13.2)
3.5 - 1:39.41 - (13.4)
4.0 - 1:53.09 - (13.6)
4.5 - 2:06.71 - (13.6)
5.0 - 2:20.53 - (13.8)
5.5 - 2:34.49 - (13.9)
6.0 - 2:48.55 - (14.0)
6.5 - 3:02.84 - (14.2)
7.0 - 3:17.28 - (14.4)
7.5 - 3:31.69 - (14.4)
8.0 - 3:46.09 - (14.4)
3.44 35
9 3 Poland (115) Jan Szymanski (116) Adrian Wielgat (111) Zbigniew Brodka (110) Marcin Bachanek POL POL 3:46.770.5 - 17.91 - (17.9)
1.0 - 31.71 - (13.8)
1.5 - 45.37 - (13.6)
2.0 - 59.13 - (13.7)
2.5 - 1:12.72 - (13.5)
3.0 - 1:26.34 - (13.6)
3.5 - 1:40.20 - (13.8)
4.0 - 1:54.05 - (13.8)
4.5 - 2:08.05 - (14.0)
5.0 - 2:22.31 - (14.2)
5.5 - 2:36.49 - (14.1)
6.0 - 2:50.59 - (14.1)
6.5 - 3:04.91 - (14.3)
7.0 - 3:18.83 - (13.9)
7.5 - 3:32.72 - (13.8)
8.0 - 3:46.77 - (14.0)
4.12 30
10 11 China (27) Yu Wu (26) Shiwei Wang (30) Jiafan Zhu CHN CHN 3:55.790.5 - 18.04 - (18.0)
1.0 - 31.77 - (13.7)
1.5 - 45.28 - (13.5)
2.0 - 59.14 - (13.8)
2.5 - 1:13.08 - (13.9)
3.0 - 1:27.49 - (14.4)
3.5 - 1:41.94 - (14.4)
4.0 - 1:56.55 - (14.6)
4.5 - 2:10.80 - (14.2)
5.0 - 2:25.34 - (14.5)
5.5 - 2:40.10 - (14.7)
6.0 - 2:55.30 - (15.2)
6.5 - 3:10.43 - (15.1)
7.0 - 3:25.60 - (15.1)
7.5 - 3:40.59 - (14.9)
8.0 - 3:55.79 - (15.2)
13.14 25